Regional Weather Roundup
Issued by NWS

Current Version | Previous Version | Text Only | Print | Product List | Glossary On
Versions: 1 2 3 4 5 6 7 8 9 10 11 12 13 14 15 16 17 18 19 20 21 22 23 24 25 26 27 28 29 30 31 32 33 34 35 36 37 38 39 40 41 42 43 44 45 46 47 48 49 50
480
ASHW40 PHFO 221012
RWRHI

WEATHER ROUNDUP FOR HAWAII
NATIONAL WEATHER SERVICE HONOLULU HI
1200 AM HST TUE AUG 22 2017

THIS IS AN AUTOMATED REPORT THAT HAS NOT BEEN QUALITY CONTROLLED.

NOTE..."FAIR" INDICATES FEW OR NO CLOUDS BELOW 12,000 FEET WITH NO
SIGNIFICANT WEATHER AND/OR OBSTRUCTIONS TO VISIBILITY.

* - THESE SITES REPORT LIMITED FIELDS
# - BUOY DATA PROVIDED BY PACIFIC ISLANDS OCEAN OBSERVING SYSTEM.

HIZ001>004-221100-
KAUAI-NIIHAU-

CITY           SKY/WX    TMP DP  RH WIND       PRES   REMARKS
LIHUE APT      MOCLDY    80  74  81 NE10      30.04S
PORT ALLEN*      N/A     79 N/A N/A NE14        N/A
POIPU*           N/A     79 N/A N/A NE8G17      N/A
PRINCEVILLE*     N/A     75 N/A N/A SE5         N/A
KOKOLE POINT*  NOT AVBL
MOLOAA DAIRY*    N/A     77  73  88 E5G12       N/A
WAIMEA HTS*    NOT AVBL
PUU OPAE*      NOT AVBL
PUU LUA*       NOT AVBL
MAKAHA RIDGE*  NOT AVBL
$$

HIZ005>011-221100-
OAHU-

CITY           SKY/WX    TMP DP  RH WIND       PRES   REMARKS
HONOLULU       MOCLDY    75  70  84 E8        30.00S
KALAELOA       CLOUDY    78  70  76 E3        30.01S
KANEOHE MCB    NOT AVBL
WHEELER FIELD  FAIR      75  70  85 E3        30.01F
BELLOWS*       NOT AVBL
KAHUKU*        NOT AVBL
WHEELER*       NOT AVBL
WAIANAE HARBOR NOT AVBL
DILLINGHAM*      N/A     75  70  83 W1          N/A
KAHUKU TRN*      N/A     75  73  94 W7G15       N/A
KAWAILOA*        N/A     73  68  83 E9G18       N/A
KII*           NOT AVBL
MAKUA RANGE*     N/A     86  75  70 W8          N/A  HX  95
OAHU FOREST NW NOT AVBL
SCHOFIELD BRK*   N/A     82  79  89 N1          N/A  HX  93
SCHOFIELD S*   NOT AVBL
WAIANAE VLY*   NOT AVBL
KUAOKALA*      NOT AVBL
HONOULIUULI*   NOT AVBL
MOKUOLOE IS*   NOT AVBL
PALEHUA*       NOT AVBL
WAIAWA PHB*    NOT AVBL
$$

HIZ012>013-221100-
MOLOKAI-

CITY           SKY/WX    TMP DP  RH WIND       PRES   REMARKS
MOLOKAI AIRPT  CLEAR     78  71  79 VRB5      30.00F
KALAUPAPA      NOT AVBL
MAKAPULAPAI*   NOT AVBL
MOLOKAI 1*     NOT AVBL
PUU ALII*      NOT AVBL
$$

HIZ016-221100-
KAHOOLAWE-

CITY           SKY/WX    TMP DP  RH WIND       PRES   REMARKS
KAHOOLAWE*     NOT AVBL
HAKIOAWA*      NOT AVBL
HONOKANAIA*      N/A     80  72  76 NE10G17   29.94F
KANELOA*         N/A     77  73  88 NE12G23   30.07F
KEALIALALO*    NOT AVBL
LUA MAKIKA*    NOT AVBL
$$

HIZ014>015-221100-
LANAI-

CITY           SKY/WX    TMP DP  RH WIND       PRES   REMARKS
LANAI CITY     FAIR      72  69  90 E5        30.06F
LANAI 1*       NOT AVBL
$$

HIZ017>028-221100-
MAUI-

CITY           SKY/WX    TMP DP  RH WIND       PRES   REMARKS
KAHULUI        PTCLDY   N/A N/A N/A NE15G23   29.99F
KAPALUA-W MAUI NOT AVBL
HANA AIRPORT   MOCLDY    75  73  94 SE2       30.05F
HANA*          NOT AVBL
HALEAKALA SUMM NOT AVBL
MAALAEA BAY*   NOT AVBL
HALEAKALA*     NOT AVBL
KAUPO GAP*     NOT AVBL
KULA 1*          N/A     55  53  91 E3          N/A
$$

HIZ023>026-221100-
BIG ISLAND OF HAWAII COAST AND LOWER SLOPES-

CITY           SKY/WX    TMP DP  RH WIND       PRES   REMARKS
KAILUA KONA    PTCLDY    80  72  76 SE10      29.96F
HILO           LGT RAIN  73  73 100 SE3       30.02S
HONOKAA*         N/A     72 N/A N/A VRB1        N/A
KAWAIHAE MWT*    N/A     82 N/A N/A NW7         N/A
KAWAIHAE*      NOT AVBL
SOUTH POINT*     N/A     72 N/A N/A N10         N/A
UPOLU AIRPORT* NOT AVBL
KAMUELA*         N/A     68  66  94 NE14      30.11F
HAKALAU*         N/A     56  55  95 SW3         N/A
KALOKO-HONOKO* NOT AVBL
PALI 2*          N/A     70  64  83 S12G18      N/A
KEALAKOMO*       N/A     79  70  73 N12G18      N/A
KAUPULEHU*     NOT AVBL
KAPAPALA*        N/A     66  66 100 VRB3        N/A
LOWER KAHUKU*  NOT AVBL
PUHE CS*       NOT AVBL
PUHO CS*       NOT AVBL
PTA KEAMUKU*     N/A    N/A N/A N/A S6          N/A
WAIKOLOA*      NOT AVBL
$$

HIZ027>028-221100-
BIG ISLAND OF HAWAII INTERIOR AND SUMMMITS-

CITY           SKY/WX    TMP DP  RH WIND       PRES   REMARKS
BRADSHAW FIELD MOCLDY    58  55  88 SE7       30.36F
MK VISITOR CEN NOT AVBL
MAUNA KEA*       N/A     34  30  86 E12         N/A  WCI  25
MAUNA LOA*       N/A     43  36  75 MISG        N/A
MAUNA LOA 1*   NOT AVBL
PTA KIPUKA*      N/A     57  57 100 W3G10       N/A
PTA RANGE 17*    N/A     61  55  82 W9G17       N/A
PTA WEST*        N/A     61  54  77 S7          N/A
NENE CABIN*    NOT AVBL
AHUMOA*        NOT AVBL
PTA PORTABLE*  NOT AVBL
PUU MALI*        N/A     61  50  67 SE10G17     N/A
$$

HIC003-221100-
NORTHWEST ISLANDS-

CITY           SKY/WX    TMP DP  RH WIND       PRES   REMARKS
MIDWAY ISLAND  PTCLDY    79  73  83 NE10      30.20R
MIDWAY NOS*    NOT AVBL
FRENCH FRIGATE NOT AVBL
$$

PHZ110>124-180-221100-
BUOY REPORTS

STATION/POSITION TIME  TEMP    WIND        PRES    WAVE   SWELL
                       AIR SEA DIR/SP/G            HT/PER HT/DIR
                 (UTC) (F)     (DEG/KT/KT) (MB)    (FT/S) (FT/D)
BUOY 51001       0950   80 81   90/ 14/ 16 1018.0R   5/ 8   3/110
BUOY 51101       0950   80 81   80/ 14/ 16 1018.3S   5/ 7   3/110
BUOY 51100       NOT AVBL
BUOY 51002       0950   80 81   80/ 14/ 16 1014.5R   6/11   3/160
BUOY 51003       0950   81 82   50/ 12/ 14 1014.8F   4/11   3/150
BUOY 51004       0950      80   80/ 16/ 17 1014.1F   6/ 8   3/ 70
WAIMEA BAY#      NOT AVBL
MOKAPU POINT#    0934      81                N/A     5/ 7   2/150
LANAI#           NOT AVBL
BARBERS PT 2#    NOT AVBL
PAUWELA#         0939      80                N/A     5/ 8
HILO#            0927      81                N/A     6/ 7   2/110
KANEOHE BAY#     NOT AVBL
KANEOHE BAY 2#   NOT AVBL
HANALEI#         0952      80                N/A     5/ 6
KAHULUI HARBOR   0948   79 81   10/ 11/ 14 1016.1F
HONOLULU HARBOR  0948   80 81   60/  3/  6 1016.5F
PEARL HARBOR#    0930      82                N/A     3/12   2/160
KILO NALU        NOT AVBL
HILO HARBOR      0948   74 80  190/  3/  5 1016.3F
MOKUOLOE         0936   80 83   80/  8/ 10 1016.3F
NAWILIWILI       0948   79      60/  9/ 12 1016.6F
WHOTS BUOY       NOT AVBL
BUOY 51028       NOT AVBL
$$

......................KEY........................................
  SKY/WX - SKY CONDITIONS/PRESENT WEATHER
  TMP    - TEMPERATURE IN FAHRENHEIT
  DWPT   - DEWPOINT IN FAHRENHEIT
  RH     - RELATIVE HUMIDITY IN PERCENT
  WIND   - DIRECTION AND SPEED /MPH FOR ISLANDS...KTS FOR BUOYS/
  PRES   - MEAN SEA LEVEL PRESSURE IN INCHES OF HG
  VSB    - VISIBILITY IN MILES
  HX     - HEAT INDEX
  WCI    - WIND CHILL INDEX
  VRB    - VARIABLE WIND DIRECTION
  N/A    - NOT AVAILABLE




USA.gov is the U.S. government's official web portal to all federal, state and local government web resources and services.